Regional Weather Roundup
Issued by NWS

Home | Current Version | Previous Version | Text Only | Print | Product List | Glossary On
Versions: 1 2 3 4 5 6 7 8 9 10 11 12 13 14 15 16 17 18 19 20 21 22 23 24 25 26 27 28
000
ASUS42 KFFC 170103
RWRGA
WEATHER ROUNDUP FOR GEORGIA
NATIONAL WEATHER SERVICE PEACHTREE CITY GA
900 PM EDT WED APR 16 2014

NOTE: "FAIR" INDICATES FEW OR NO CLOUDS BELOW 12,000 FEET WITH NO
SIGNIFICANT WEATHER AND/OR OBSTRUCTIONS TO VISIBILITY.

* = USE WITH CAUTION. THE STATIONS MARKED WITH AN ASTERISK MAY NOT
REPORT WEATHER SUCH AS PRECIPITATION, FOG, OR THUNDER AND ARE NOT
QUALITY CONTROLLED BY NWS.

THE REMARK "TC" DENOTES TEMPERATURE READING IN DEGREES CELSIUS.

GAZ001>058-170200-
NORTH GEORGIA

CITY           SKY/WX    TMP DP  RH WIND       PRES   REMARKS
ATLANTA        PTCLDY    54  29  38 E8        30.25R
ATHENS         CLEAR     47  34  60 E5        30.30R
CHAMBLEE       CLEAR     52  26  36 VRB5      30.26R
PEACHTREE CITY CLEAR     53  32  44 CALM      30.25R
ROME           CLEAR     55  30  38 SE6       30.22R
WEST ATLANTA   CLEAR     56  27  32 E6        30.25R
GAINESVILLE    CLEAR     50  27  40 E6        30.30R
CARTERSVILLE   CLEAR     50  32  50 CALM      30.25R


CITY           SKY/WX    TMP DP  RH WIND       PRES   REMARKS
DALTON*        CLEAR     55  30  38 CALM      30.23R
LAWRENCEVILLE* CLEAR     48  28  46 E5        30.27
MARIETTA       PTCLDY    52  29  41 E8        30.25R
$$

GAZ059>098-102>109-170200-
CENTRAL GEORGIA

CITY           SKY/WX    TMP DP  RH WIND       PRES   REMARKS
AUGUSTA-BUSH   CLEAR     49  31  49 E6        30.32R
AUGUSTA-DANIEL CLEAR     56  30  37 E7        30.32R
COLUMBUS       CLEAR     56  33  42 SE8       30.21R
MACON          CLEAR     49  35  58 E8        30.26R
ROBINS AFB     CLEAR     54  36  50 E6        30.26R


CITY           SKY/WX    TMP DP  RH WIND       PRES   REMARKS
LAGRANGE*      CLEAR     56  35  44 SE3       30.22R
SYLVANIA*      CLEAR     52  40  65 E5        30.32R
MILLEDGEVILLE* CLEAR     54  27  35 CALM      30.29R
$$

GAZ099>101-110>166-170200-
SOUTH GEORGIA

CITY           SKY/WX    TMP DP  RH WIND       PRES   REMARKS
SAVANNAH       CLEAR     53  41  63 E9        30.32R
VALDOSTA       PTCLDY    59  46  62 E8        30.22R
ALMA           CLEAR     51  40  65 E6        30.28R
ST SIMONS      LGT RAIN  55  45  68 NE16G24   30.27R
FT STEWART     CLEAR     50  45  81 E6        30.29R
ALBANY         CLEAR     55  41  59 E8        30.23S
HUNTER AFB     CLEAR     52  42  69 E8        30.29R
MOODY AFB      CLOUDY    57  45  65 E12       30.23R
BRUNSWICK      CLEAR     52  43  71 NE8       30.29R


CITY           SKY/WX    TMP DP  RH WIND       PRES   REMARKS
BAINBRIDGE*    CLEAR     61  46  59 E9        30.19R
MOULTRIE*      CLEAR     55  45  67 E7        30.22R
VIDALIA*       CLEAR     54  41  62 SE3       30.28R
DOUGLAS*       CLEAR     54  43  66 E6        30.28R
$$



USA.gov is the U.S. government's official web portal to all federal, state and local government web resources and services.